Regional Weather Roundup
Issued by NWS

Home | Current Version | Previous Version | Graphics & Text | Print | Product List | Glossary On
Versions: 1 2 3 4 5 6 7 8 9 10 11 12 13 14 15 16 17 18 19 20 21 22 23 24 25 26 27 28 29 30 31 32 33 34 35 36 37 38 39 40 41 42 43 44 45 46 47 48 49 50
488
ASUS43 KTOP 201359
RWRKS

WEATHER ROUNDUP FOR KANSAS
NATIONAL WEATHER SERVICE GOODLAND KS
800 AM CST FRI JAN 20 2017

NOTE:  "FAIR" INDICATES FEW OR NO CLOUDS BELOW 12,000 FEET WITH NO
SIGNIFICANT WEATHER AND/OR OBSTRUCTIONS TO VISIBILITY.

KSZ001>006-013>018-027>032-041>047-201500-
NORTHWEST KANSAS

CITY           SKY/WX    TMP DP  RH WIND       PRES   REMARKS
GOODLAND       CLOUDY    30  30 100 SW5       29.44F FOG
HAYS           FOG       40  40 100 S5        29.50R VSB<1/4
HILL CITY      FOG       38  38 100 CALM      29.48F VSB 1/4
RUSSELL        FOG       41  41 100 SE5       29.49R VSB 1/4
$$

KSZ061>065-074>080-084>089-201500-
SOUTHWEST KANSAS

CITY           SKY/WX    TMP DP  RH WIND       PRES   REMARKS
DODGE CITY     CLOUDY    36  35  96 CALM      29.47F FOG
ELKHART          N/A     28  23  81 S5          N/A
GARDEN CITY    CLOUDY    36  35  96 S3        29.46F FOG
GREAT BEND     FOG       41  41 100 S5        29.51R VSB 1/4
LIBERAL        CLOUDY    37  34  87 CALM      29.47F
$$

KSZ066>073-081>083-090>101-201500-
SOUTHEAST KANSAS

CITY           SKY/WX    TMP DP  RH WIND       PRES   REMARKS
CHANUTE        FOG       49  48  97 E7        29.51F VSB 1/2
COFFEYVILLE    CLOUDY    50  48  93 SE7       29.51F
HUTCHINSON     FOG       44  43  96 CALM      29.50R VSB 1/4
MEDICINE LODGE   N/A     39  38  96 N6        29.48F
NEWTON         FOG       44  44 100 SE6       29.51R VSB<1/4
PARSONS        CLOUDY    50  47  89 SE6       29.51F FOG
WICHITA INTL   CLOUDY    47  46  97 E6        29.50S FOG
WICHITA JABRA  CLOUDY    46  46 100 CALM      29.50R FOG
WINFIELD       CLOUDY    47  46  97 S5        29.51R
$$

KSZ007>012-019>026-033>040-048>060-102>105-201500-
NORTHEAST KANSAS

CITY           SKY/WX    TMP DP  RH WIND       PRES   REMARKS
CONCORDIA      FOG       39  39 100 E7        29.51F VSB 1/2
EMPORIA        FOG       45  45 100 E7        29.50F VSB 1/4
LAWRENCE       FOG       44  44 100 E5        29.57R VSB<1/4
MANHATTAN      CLOUDY    44  43  96 NE7       29.52F FOG
OLATHE IND     FOG       45  45 100 SE7       29.57R VSB 1
OLATHE EXE     FOG       44  44 100 SE5       29.57R VSB 1/4
SALINA         FOG       41  41 100 NE7       29.51S VSB 1/4
TOPEKA BILLARD FOG       45  42  89 NE3       29.56S VSB 1/2
TOPEKA FORBES  FOG       46  44  93 E6        29.55S VSB 1/8
$$




USA.gov is the U.S. government's official web portal to all federal, state and local government web resources and services.